SCP
0 0 0 0 0 0 0 0 0 0 0 0 0 0 0 0 0 0 0 1 1 1 1 1 1 1 1 1 1 1 1 1 0 0 0 0 0 0 0 0 0 0 0
0 0 0 0 0 0 0 0 0 0 0 0 0 0 0 0 0 0 1 1 1 1 1 1 1 1 1 1 1 1 1 1 1 0 0 0 0 0 0 0 0 0 0
0 0 0 0 0 0 0 0 0 0 0 0 0 0 0 0 0 0 1 1 1 1 1 1 1 1 1 1 1 1 1 1 1 1 1 0 0 0 0 0 0 0 0
0 0 0 0 0 0 0 0 0 0 0 0 0 0 0 0 0 0 1 0 0 0 1 1 1 1 1 1 1 1 1 1 1 1 1 1 0 0 0 0 0 0 0
0 0 0 0 0 0 -0 0 0 0 0 0 0 0 0 0 0 0 0 0 0 0 0 1 1 1 1 1 1 1 1 1 1 1 1 1 0 0 0 0 0 0 0
0 0 0 0 0 0 0 0 0 0 0 0 0 0 0 0 0 0 0 0 0 0 0 0 0 1 1 1 1 1 1 1 1 1 1 1 0 0 0 0 0 0 0
0 0 0 0 0 0 0 0 0 0 0 0 0 0 0 0 0 0 0 0 0 0 0 0 0 0 1 1 1 1 1 1 1 1 1 1 0 0 0 0 0 0 0
0 0 0 0 0 0 0 0 0 0 0 0 0 0 0 0 0 0 0 0 0 0 0 0 0 0 0 0 1 1 1 1 1 1 1 1 0 0 0 0 0 0 0
0 0 0 0 0 0 0 0 0 0 0 0 0 0 0 0 0 0 0 0 0 0 0 0 0 0 0 0 0 0 1 1 1 1 1 0 0 0 0 0 0 0 0
0 0 0 0 0 0 0 0 0 0 0 0 0 0 0 0 0 0 0 0 0 0 0 0 0 0 0 0 0 0 0 0 0 0 0 0 0 0 0 0 0 0 0
0 0 0 0 0 0 0 0 0 0 0 0 0 0 0 0 0 0 0 0 0 0 0 0 0 0 0 0 -0 0 0 0 0 0 0 0 0 0 0 0 0 0 0
0 0 0 0 0 0 0 0 0 0 0 0 0 0 0 0 0 0 0 0 0 0 0 0 0 0 0 0 0 -0 0 0 0 0 0 0 0 0 0 0 0 0 0
0 0 0 0 0 0 0 0 0 0 0 0 0 0 0 0 0 0 0 0 0 0 0 0 0 0 0 0 0 0 0 0 0 0 0 0 0 0 0 0 0 0 0
0 0 0 0 0 0 0 0 0 0 0 0 0 0 0 0 0 0 0 0 0 0 0 0 0 0 0 0 0 0 0 0 0 0 0 0 0 0 0 0 0 0 0
0 0 0 0 0 0 0 0 0 0 0 0 0 0 0 0 0 0 0 0 0 0 0 0 0 0 0 0 0 0 0 0 0 0 0 0 0 0 0 0 0 0 0
0 0 0 0 0 0 0 0 0 0 0 0 0 0 0 0 0 0 0 0 0 0 0 0 0 0 0 0 0 0 0 0 0 0 0 0 0 0 0 0 0 0 0
0 0 0 0 0 0 0 0 0 0 0 0 0 0 0 0 0 0 0 0 0 0 0 0 0 0 0 0 0 0 0 0 0 0 0 0 0 0 0 0 0 0 0
0 0 0 0 0 0 0 0 0 0 0 0 0 0 0 0 0 0 0 0 0 0 0 0 0 0 0 0 0 0 0 0 0 0 0 0 0 0 0 0 0 0 0
0 0 0 0 0 0 0 0 0 0 0 0 0 0 0 0 0 0 0 0 0 0 0 0 0 0 0 0 0 0 0 0 0 0 0 0 0 0 0 0 0 0 0
0 0 0 0 0 0 0 0 0 0 0 0 0 0 0 0 0 0 0 0 0 0 0 0 0 0 0 0 0 0 0 0 0 0 0 0 0 0 0 0 0 0 0
0 0 0 0 0 0 0 0 0 0 0 0 0 0 0 0 0 0 0 0 0 0 0 0 0 0 0 0 0 0 0 0 0 0 0 0 0 0 0 0 0 0 0
0 0 0 0 0 0 0 0 0 0 0 0 0 0 0 0 0 0 0 0 0 0 0 0 0 0 0 0 -0 0 0 0 0 0 0 0 0 0 0 0 0 0 0
0 0 0 0 0 0 0 0 0 0 0 0 0 0 0 0 0 0 0 0 0 0 0 0 0 0 0 0 0 0 0 -0 -0 -0 0 0 0 0 0 0 0 0 0
0 0 0 0 0 0 0 0 0 0 0 0 0 0 0 0 0 0 0 0 0 0 0 0 0 0 0 0 0 0 0 0 -0 -0 0 0 0 0 0 0 0 0 0
0 0 0 0 0 0 0 0 0 0 0 0 0 0 0 0 0 0 0 0 0 0 0 0 0 0 0 0 0 0 0 0 0 0 0 0 0 0 0 0 0 0 0
0 0 0 0 0 0 0 0 0 0 0 0 0 0 0 0 0 0 0 0 0 0 0 0 0 0 0 0 0 0 0 0 0 0 0 0 0 0 0 0 0 0 0
Wind_Speed
3 3 3 3 3 3 3 3 3 4 5 7 7 7 7 7 6 5 4 10 14 15 17 17 19 18 17 17 16 14 14 13 12 11 10 9 8 8 8 8 8 8 9
3 4 4 3 3 3 4 4 4 4 5 5 6 7 7 6 6 7 6 9 14 14 16 17 18 19 19 18 17 16 15 15 14 12 10 9 9 9 9 9 9 10 11
3 3 4 4 4 4 5 4 5 4 4 4 5 6 6 6 6 7 6 6 8 11 13 15 17 19 20 20 19 18 16 15 14 12 11 10 9 9 9 9 9 9 10
5 4 3 4 5 4 4 4 5 4 4 4 4 4 4 4 6 6 5 4 3 4 8 10 14 19 20 20 20 20 18 16 14 13 12 10 9 9 8 9 9 8 9
6 4 4 5 5 4 4 5 5 4 4 4 4 4 4 4 5 5 4 3 4 5 4 6 10 13 15 17 19 20 18 16 15 14 12 10 9 8 8 9 9 9 9
11 6 5 5 5 4 5 4 5 4 4 4 2 3 4 4 4 4 5 4 5 6 5 4 5 6 9 11 15 16 17 16 16 14 12 11 9 9 8 8 8 8 8
16 12 7 6 5 4 5 5 4 5 5 3 1 2 3 4 4 4 4 4 4 5 5 5 4 3 3 6 8 12 14 16 16 15 13 11 10 9 9 9 8 8 7
16 13 12 9 6 5 5 5 4 3 3 4 3 2 1 3 3 2 3 4 4 2 3 4 4 4 3 1 2 6 9 14 17 16 13 12 12 11 11 10 9 9 8
17 17 15 12 7 5 5 6 5 5 4 3 4 4 3 3 1 2 1 2 2 3 3 3 4 4 4 4 3 3 4 6 11 12 11 11 11 11 11 7 3 6 7
16 17 17 13 9 5 5 5 5 4 5 3 2 2 3 2 2 1 2 3 2 1 2 3 3 4 4 3 5 6 7 5 6 7 9 8 8 8 7 4 2 3 4
15 17 17 14 11 7 6 5 5 5 4 4 3 3 2 1 2 2 1 3 3 2 1 1 4 4 4 4 4 6 7 5 6 6 6 6 5 4 2 3 3 3 4
12 15 17 16 14 10 7 7 7 7 5 4 3 3 3 3 3 3 2 2 2 2 2 1 2 3 3 4 5 8 7 6 6 7 6 6 5 5 5 4 3 4 4
12 14 17 17 16 11 9 6 6 6 6 4 4 3 3 3 3 3 3 2 2 2 2 2 1 1 3 3 5 8 8 8 8 8 8 7 6 5 4 3 3 4 5
13 17 17 18 19 12 9 7 4 6 6 5 4 2 2 3 3 3 4 4 2 1 1 2 1 1 2 3 5 8 5 8 8 9 8 7 7 6 5 5 4 4 5
14 17 18 18 17 6 5 6 5 8 7 5 6 4 1 1 2 2 2 3 4 3 3 3 2 1 1 2 5 5 4 7 10 9 9 8 7 6 5 5 4 4 5
17 18 18 18 16 9 6 4 2 3 9 7 6 6 4 3 2 0 1 2 3 4 3 4 4 2 2 2 4 5 5 9 10 10 10 9 8 6 4 2 2 2 3
17 18 19 17 15 10 6 5 6 4 7 7 6 7 5 3 4 3 1 1 2 3 3 3 2 1 2 3 2 2 3 3 5 9 11 10 8 6 4 2 1 1 2
17 18 17 11 5 2 2 2 3 4 5 7 6 6 5 7 6 5 3 2 0 2 4 4 3 2 2 3 4 4 3 4 3 8 14 11 9 7 6 4 3 2 1
18 18 14 10 11 9 6 6 6 7 9 8 7 7 7 7 2 1 3 3 2 1 2 3 3 2 2 1 2 2 2 2 1 5 11 10 10 8 6 4 4 2 1
17 17 16 13 12 11 11 10 10 10 10 9 8 8 7 6 5 3 3 3 3 2 1 1 2 1 0 1 1 2 3 2 3 3 2 5 7 7 7 7 5 3 2
14 15 16 14 11 10 12 13 12 11 11 10 9 9 9 11 11 8 6 5 5 4 2 1 1 1 2 2 1 1 2 2 3 3 1 2 2 2 3 2 2 4 5
12 11 13 15 14 11 18 20 14 10 11 11 9 8 9 11 12 12 12 10 9 6 3 3 2 2 3 3 2 2 2 2 2 1 1 0 1 1 1 2 6 11 14
12 8 9 11 13 13 18 18 15 9 9 8 7 6 6 7 7 6 7 10 12 14 11 7 5 5 4 4 3 2 2 1 2 3 2 1 2 1 2 4 13 15 13
12 9 7 9 10 13 15 13 13 8 6 6 6 6 7 7 7 9 5 8 9 9 10 8 6 4 2 3 3 2 2 2 4 4 4 1 3 2 2 3 10 13 12
11 10 8 7 9 12 14 13 10 5 5 6 6 6 6 6 10 12 7 6 7 7 10 11 10 11 11 9 3 2 2 2 2 2 5 2 2 3 2 1 4 12 11
11 10 8 8 11 11 14 11 8 4 4 4 5 7 9 7 9 11 6 4 7 6 6 7 10 13 12 13 15 9 4 2 2 2 3 3 2 3 3 2 2 3 5
Wind_Direction
272 268 267 271 263 254 253 260 252 238 226 226 230 233 233 229 223 221 217 218 207 204 209 203 203 201 201 201 200 199 197 197 198 198 202 205 209 221 233 239 240 244 250
262 256 253 259 261 254 250 246 242 236 232 231 233 233 231 227 218 216 208 209 210 209 211 206 208 208 204 203 201 199 197 200 202 204 207 211 217 229 238 243 249 252 256
279 272 265 266 263 267 267 260 254 244 251 252 251 242 233 227 214 212 204 193 203 210 215 210 213 217 212 208 203 199 196 198 200 198 201 206 216 231 246 255 260 260 261
267 259 253 256 260 261 258 254 248 243 238 243 254 257 241 229 212 210 200 186 189 203 215 217 216 217 218 217 211 205 199 192 193 192 197 204 214 229 246 264 276 275 271
275 243 241 252 259 255 250 242 238 213 226 238 242 253 249 239 229 215 215 209 207 197 196 213 219 218 224 223 222 217 206 195 191 192 194 198 209 226 244 261 275 282 283
310 280 262 265 264 255 259 248 237 211 213 222 241 262 258 245 238 225 222 215 213 208 199 191 216 222 223 226 228 225 213 201 194 191 191 197 210 225 241 255 267 276 281
331 318 285 262 255 241 248 243 225 221 220 193 159 270 274 260 242 232 230 226 220 213 198 191 185 190 208 230 225 222 220 210 205 201 197 205 216 230 243 252 260 269 276
327 318 305 279 249 232 238 237 227 200 201 177 161 173 279 298 275 255 240 236 241 227 205 194 171 173 185 178 213 212 217 217 212 210 205 214 228 238 243 247 249 259 268
328 324 316 297 261 227 217 207 210 203 186 190 183 160 173 236 296 321 311 265 233 213 201 180 170 173 170 156 166 167 166 203 214 213 213 219 227 235 241 238 255 274 274
324 321 318 309 277 238 222 204 195 189 165 180 179 172 155 193 174 287 335 348 342 254 187 160 149 140 136 131 127 124 127 142 172 192 202 204 212 222 228 216 123 50 14
320 318 318 319 302 271 228 203 191 170 165 172 179 171 129 138 147 141 271 324 346 349 9 148 136 134 137 132 116 123 133 142 159 172 175 173 167 166 163 89 52 5 340
315 316 316 314 304 293 256 200 181 169 169 167 173 181 155 168 177 144 173 240 273 316 338 352 117 136 132 140 130 138 141 143 150 149 146 140 127 117 98 68 25 9 357
314 314 313 310 296 273 273 238 164 151 150 153 168 194 176 173 161 147 152 189 237 288 324 317 294 147 130 130 131 138 145 144 149 146 138 130 122 104 80 55 22 6 4
309 307 306 304 292 250 224 234 180 141 132 126 128 175 189 183 170 168 165 153 169 292 312 271 283 197 147 146 149 137 138 149 146 142 139 137 130 112 86 69 51 21 4
307 302 301 296 290 268 223 207 198 144 123 106 93 72 31 227 200 179 173 160 156 183 233 254 248 216 170 151 150 137 144 160 152 148 146 140 131 117 95 74 58 36 14
309 306 301 290 279 253 199 172 135 122 118 114 101 79 42 349 343 107 186 185 160 162 204 229 233 244 191 186 167 152 170 166 165 162 158 153 147 141 128 94 62 39 10
309 305 299 294 273 241 216 171 150 151 113 102 92 94 86 32 3 6 13 196 186 158 181 227 252 266 187 173 159 169 163 149 170 175 167 165 162 158 157 170 213 9 9
317 306 303 324 315 237 173 165 143 128 111 107 98 92 80 67 24 346 8 25 85 193 175 208 234 226 221 197 168 183 185 166 179 185 173 176 174 175 188 197 212 244 294
332 327 328 11 30 22 36 48 51 61 64 65 69 81 79 93 153 1 32 32 31 18 183 185 219 222 256 12 103 91 71 88 191 191 171 185 177 182 185 173 161 150 193
343 344 352 21 35 32 33 38 43 47 56 57 58 63 74 96 112 96 61 34 32 41 43 157 143 121 50 358 53 105 109 74 38 16 91 131 134 128 116 110 118 107 77
345 349 359 10 28 42 49 47 43 40 42 40 37 36 42 52 64 73 73 53 41 34 32 34 73 93 65 41 65 114 133 128 72 18 14 37 81 97 84 71 97 101 91
343 354 3 6 10 28 46 52 54 46 43 36 28 24 31 37 36 39 50 57 58 55 47 45 26 51 66 45 13 42 102 157 147 59 81 183 293 102 54 70 91 91 86
338 357 10 8 2 9 36 45 54 55 56 49 36 24 26 22 39 29 41 63 58 57 60 54 49 35 27 23 15 57 76 32 89 357 0 52 352 55 39 72 92 83 72
346 354 13 15 5 358 21 49 57 59 60 54 42 30 23 6 24 29 27 69 67 63 59 57 60 49 47 11 11 5 55 74 85 43 2 67 1 345 12 52 69 63 53
347 347 5 8 16 354 12 44 60 49 47 44 33 22 33 2 31 40 36 62 64 44 53 57 69 70 66 61 59 48 27 57 93 41 6 21 359 329 326 329 27 34 35
348 352 6 8 14 356 1 25 49 47 44 40 30 17 16 22 41 57 44 43 64 43 49 63 62 60 52 48 48 50 30 55 98 100 6 7 4 340 303 306 352 20 30